Volver al catálogo

FENGYUN 1C DEB

ActivoSSO
NORAD 36173·DEBRIS·🇨🇳 China

Lanzado May 10, 1999 desde Taiyuan Satellite Launch Center

Loading…

Próximos Pases (próximas 24 horas)

TLE

EnvejeciendoSource: Space-Track

Época: Sep 11, 2026, 01:47 UTC

1 36173U 99025DSW 26254.07458631  .00000493  00000-0  20104-3 0  9994
2 36173  98.2430 199.6224 0147603 102.8327 258.9391 14.25587718629704

Sigue FENGYUN 1C DEB en tiempo real con AllMySat

Download on the App Store